Погода в Голуэй

Ирландия     53°17′06″N   9°02′03″W
темп.,
°C
ветер,
м/с
пор.,
м/с
влажн.,
%
обл.,
%
осадки,
мм/ч
давл.,
гПа
погр.,
м
26 февраля, пт
пт2600:00+6ю588641 0.0 1032245
03:00+6ю5108869 0.0 1032307
06:00+5ю598834 0.0 1032304
09:00+6ю610882 0.0 1032331
12:00+10ю6107933 0.0 1033752
15:00+10юз7117478 0.0 1033833
18:00+9ююз6117687 0.1 1033539
21:00+8ю5138190 0.0 1035679
27 февраля, сб
сб2700:00+8ююз5128392 0.0 1036617
03:00+7ю4785100 0.0 1037353
06:00+7ю3688100 0.1 1038237
09:00+7ю358872 0.0 1039192
12:00+9ю238781 0.0 1040168
15:00+10юз238397 0.1 1039322
18:00+9зсз118896 0.2 103928
21:00+9ююв129199 0.1 104027
28 февраля, вс
вс2800:00+7ю238969 0.1 104048
03:00+6ююв338811 0.0 103874
06:00+5ююв22885 0.0 103777
09:00+5юв23870 0.0 1037133
12:00+8ююв23690 0.0 1037385
15:00+10юв24630 0.0 1034489
18:00+8юв12810 0.0 103324
21:00+6вюв22877 0.0 103443
1 марта, пн
пн100:00+5вюв23883 0.0 103469
03:00+4вюв23840 0.0 103166
06:00+3всв33850 0.0 103087
09:00+4в47830 0.0 1030239
12:00+9вюв57740 0.0 1029415
15:00+11вюв57700 0.0 1027481
18:00+8вюв46810 0.0 1026102
21:00+6вюв48870 0.0 1027248
2 марта, вт
вт200:00+4вюв36890 0.0 1026169
03:00+4в36920 0.0 1025154
06:00+3в47930 0.0 1024182
09:00+5вюв48913 0.0 1024316
12:00+8вюв46783 0.0 1023562
15:00+10юв23740 0.0 1023422
18:00+8вюв01870 0.0 102222
21:00+6ююв11920 0.0 102322